Regional Weather Roundup
Issued by NWS Grand Forks, ND

Home | Current Version | Previous Version | Text Only | Print | Product List | Glossary On
Versions: 1 2 3 4 5 6 7 8 9 10 11 12 13 14 15 16 17 18 19 20 21 22 23 24 25 26 27 28 29 30 31 32 33 34 35 36 37 38 39 40 41 42 43 44 45 46 47 48 49 50
000
ASUS43 KFGF 010410
RWRFGF
PRAIRIE TO PINES  WEATHER ROUNDUP
NATIONAL WEATHER SERVICE EASTERN NORTH DAKOTA/GRAND FORKS ND
1100 PM CDT SAT APR 30 2016

 **SATELLITE DATA USED TO AUGMENT SKY COVER AT AUTOMATED STATIONS**
 *****  WEATHER ACROSS EASTERN NORTH DAKOTA  *****

CITY           SKY/WX    TMP DP  RH WIND       PRES   REMARKS
GRAND FORKS    PTCLDY    50  28  42 NE12      30.25S
GRAND FRKS AFB CLEAR     46  27  46 E9        30.25S
DEVILS LAKE    CLEAR     45  30  55 E7        30.28R
FARGO          CLOUDY    51  27  39 NE14      30.20R
WAHPETON ARPT  CLEAR     46  32  57 E6        30.18R
$$

 ***** WEATHER ACROSS CENTRAL AND WESTERN NORTH DAKOTA  *****

CITY           SKY/WX    TMP DP  RH WIND       PRES   REMARKS
BISMARCK       CLEAR     48  31  51 NE8       30.26R
MINOT          CLEAR     46  26  45 N5        30.29R
JAMESTOWN      CLEAR     44  28  53 NE9       30.22R
MINOT AFB      CLEAR     46  29  51 NE7       30.29R
GARRISON         N/A     42  30  62 N7        30.28R
WILLISTON      CLEAR     40  31  70 N6        30.30R
DICKINSON      CLEAR     43  26  51 NE6       30.27R
HETTINGER      CLEAR     39  27  62 NE8       30.27R
$$

 *****  OTHER AIRPORT OBSERVATIONS IN OUR AREA  *****

CITY           SKY/WX    TMP DP  RH WIND       PRES   REMARKS
WALHALLA       FAIR      45  30  57 SE6       30.30R
GRAFTON AIRPOR FAIR      45  28  53 NE6       30.29R
VALLEY CITY AR FAIR      46  28  49 NE14      30.24R
CANDO          FAIR      45  27  49 NE8       30.31R
CAVALIER APRT  FAIR      46  32  57 CALM      30.29R
GWINNER        FAIR      48  32  53 N12       30.19R
SHEYENNE NWR     N/A     51  28  41 NE8       29.95S
ROLLA          FAIR      39  27  60 N9        30.32R
 ***** THE ABOVE OBSERVATIONS ARE NON NWS ARE NOT QUALITY
       CONTROLLED AND MAY MIS-REPORT RAIN FOR SNOW...
$$

  *****  WEATHER ACROSS NORTHERN MINNESOTA  *****

CITY           SKY/WX    TMP DP  RH WIND       PRES   REMARKS
FLAG ISLAND    CLEAR     50  25  37 NE6       30.28R
WARROAD        CLEAR     43  32  65 N3        30.29R
ROSEAU         CLEAR     43  32  65 CALM      30.28S
HALLOCK        CLEAR     43  27  52 CALM      30.28R
THF RVR FALLS  CLEAR     45  27  49 N9        30.26S
BAUDETTE       CLEAR     45  26  47 NE7       30.26S
WASKISH        CLEAR     45  28  53 NE5       30.24S
CROOKSTON      CLEAR     46  28  49 NE8       30.26R
STEPHEN NDAWN    N/A     39  25  56 E5          N/A
GREENBUSH NDAW   N/A     43  30  61 NE3         N/A
$$
  *****  WEATHER ACROSS CENTRAL AND WEST MINNESOTA  *****

CITY           SKY/WX    TMP DP  RH WIND       PRES   REMARKS
FOSSTON        CLEAR     43  27  52 NE6       30.23S
BEMIDJI        CLEAR     42  28  57 E5        30.22R
PARK RAPIDS    CLEAR     48  29  47 E6        30.20R
ELBOW LAKE     FAIR      47  31  54 E10       30.18R
WADENA         CLOUDY    43  28  56 E5        30.20R
DETROIT LAKES  CLEAR     48  30  49 NE8       30.20R
MOORHEAD       CLOUDY    48  28  46 NE12      30.21R
FERGUS FALLS   CLOUDY    48  30  49 E3        30.17R
MORRIS MN      CLOUDY    48  30  49 E22       30.15R
STAPLES        CLOUDY    43  27  52 E3        30.20R
$$
  *****  WEATHER ELSEWHERE ACROSS MINNESOTA  *****

CITY           SKY/WX    TMP DP  RH WIND       PRES   REMARKS
DULUTH         CLOUDY    38  26  62 E12       30.22S
INTRNTL FALLS  CLEAR     44  28  53 NE5       30.25S
ELY            CLEAR     32  27  80 CALM      30.25S
CLOQUET        CLOUDY    37  27  65 NE8       30.22S
WHEATON        CLOUDY    45  34  65 NE6       30.19R
BRAINERD       PTCLDY    42  27  55 E12G20    30.21R
HIBBING        CLEAR     29  26  89 CALM      30.23S
ALEXANDRIA     CLOUDY    45  28  51 E14       30.18R
SAINT CLOUD    CLOUDY    44  27  51 NE13G22   30.14S
MINNEAPOLIS    CLOUDY    48  29  47 NE14      30.11R
$$

  *****  WEATHER ACROSS SOUTH DAKOTA  *****

CITY           SKY/WX    TMP DP  RH WIND       PRES   REMARKS
SIOUX FALLS    CLOUDY    44  40  85 E15G22    30.06R
BROOKINGS      CLOUDY    47  36  65 NE12      30.08R
WATERTOWN      CLOUDY    46  32  58 NE13G22   30.12R
HURON          CLOUDY    48  38  68 NE9       30.11R
SISSETON         N/A     45  32  60 SE5       30.16R
ABERDEEN       CLOUDY    44  32  62 N7        30.16R
MITCHELL       LGT RAIN  45  42  89 NE8       30.11R
PIERRE         CLOUDY    42  35  76 N9        30.14R
MOBRIDGE       CLOUDY    46  30  53 N9        30.18R
RAPID CITY     CLOUDY    38  30  73 N10       30.22R
$$

  *****  SOME WEATHER IN NEARBY STATES *****

CITY           SKY/WX    TMP DP  RH WIND       PRES   REMARKS
GLASGOW MT     CLEAR     47  31  53 E7        30.31R
GREAT FALLS MT CLOUDY    42  33  70 E6        30.32R
CHEYENNE WY    LGT SNOW  32  29  88 N18G26    30.16R FOG     WCI  20
SCOTTSBLUFF NE LGT RAIN  37  36  96 N12       30.17R
OMAHA NE       LGT RAIN  49  47  93 E14       29.87R
DES MOINES IA  LGT RAIN  47  43  86 E12       29.91R FOG
DAVENPORT IA   CLOUDY    45  43  93 E14G23    29.91S
CHICAGO IL     DRIZZLE   45  44  97 NE15      29.92F FOG
EAU CLAIRE WI  CLOUDY    49  35  58 NE6       30.08R
LA CROSSE WI   LGT RAIN  44  41  89 W3        30.06R
$$

  *****  SOME NATIONAL WEATHER *****

CITY           SKY/WX    TMP DP  RH WIND       PRES   REMARKS
LA GUARDIA NY  CLOUDY    51  37  58 S8        30.24S
RALEIGH NC     CLOUDY    61  55  81 SE9       30.14F
ATLANTA GA     CLOUDY    69  64  84 S7        29.98S
NEW ORLEANS LA PTCLDY    71  67  87 SE6       29.86F
OKLAHOMA CITY  CLEAR     58  44  60 N6        29.94R
ALBUQUERQUE NM CLOUDY    51  43  74 N7        29.90R
SALT LAKE CITY CLOUDY    53  29  39 N13       29.98S
LOS ANGELES CA PTCLDY    59  50  72 W8        29.82R
BOISE ID       CLOUDY    55  37  50 NW13      30.06R
SEATTLE WA     PTCLDY    62  41  46 NE9       30.30S
$$

*** WEATHER ACROSS MANITOBA...SASKATCHEWAN AND ONTARIO ***
                ***ONTARIO***

CITY           SKY/WX    TMP DP  RH WIND       PRES   REMARKS
GERALDTON      PTCLDY    37  30  75 NE7       30.32F
THUNDER BAY    CLEAR     39  28  65 NE5       30.29S
SIOUX LOOKOUT  CLEAR     41  28  60 E6        30.30S
TORONTO        CLOUDY    52  30  43 E8        30.08F
BIG TROUT LK   CLEAR     34  28  80 E6        30.35S
PICKLE LAKE    NOT AVBL
DRYDEN         CLEAR     43  32  65 NE5       30.29S
KENORA         CLEAR     46  25  42 E8        30.29S
$$
                *** MANITOBA***

CITY           SKY/WX    TMP DP  RH WIND       PRES   REMARKS
BRANDON        CLEAR     36  21  55 N6        30.34R
DAUPHIN        CLEAR     41  25  52 VRB2      30.35S
ISLAND LAKE    PTCLDY    43  28  56 CALM      30.30S
PILOT MOUND      N/A     43  27  52 N8          N/A
THE PAS        PTCLDY    46  32  57 S7        30.29S
THOMPSON       NOT AVBL
WINNIPEG       CLEAR     46  30  53 NE10      30.32R
LYNN LAKE      CLEAR     50  25  37 SW6       30.19F
CHURCHILL      MOCLDY    27  25  93 SE14G20   30.32F WCI  15
$$
                ***SASKATCHEWAN***

CITY           SKY/WX    TMP DP  RH WIND       PRES   REMARKS
ESTEVAN        NOT AVBL
KINDERSLEY     PTCLDY    50  36  57 W6        30.29R
LLOYDMINSTER   PTCLDY    48  36  61 SW7       30.26R
PRINCE ALBERT  PTCLDY    55  28  35 S9        30.25S
REGINA         PTCLDY    50  23  34 SE7       30.32S
YORKTON        CLEAR     48  28  46 SE7       30.34R
N. BATTLEFORD  CLEAR     54  34  47 W7        30.28R
LA RONGE       PTCLDY    55  25  30 S8        30.19S
SASKATOON      PTCLDY    50  27  40 S9        30.29R
SWIFT CURRENT  CLEAR     46  27  46 S7        30.30R
$$
NOTE: THESE ARE AUTOMATED STATIONS WITH LIMITED QUALITY CONTROL
      "FAIR" INDICATES FEW OR NO CLOUDS BELOW 12,000 FEET WITH NO
      SIGNIFICANT WEATHER AND/OR OBSTRUCTIONS TO VISIBILITY.
      SKY/WX - SKY CONDITION AND SIGNIFICANT WEATHER.
      TMP - AIR TEMPERATURE.    DP   - DEWPOINT TEMPERATURE.
      RH  - RELATIVE HUMIDITY.  PRES - PRESSURE.
      HX  - HEAT INDEX.         WCI  - WIND CHILL INDEX.
$




USA.gov is the U.S. government's official web portal to all federal, state and local government web resources and services.